Weather in Andijan

Uzbekistan     40°47′00″N   72°21′02″E
temp.,
°C
wind,
m/s
gust,
m/s
humid.,
%
clouds,
%
prec.,
mm/h
press.,
hPa
HPBL,
m
14 april, wed
wed1423:00+18w1243100 0.0 1021352
02:00+17nw114669 0.0 1019133
05:00+16n114837 0.0 101995
08:00+17ne2245100 0.0 1019396
11:00+21n1237100 0.0 10161153
14:00+24nnw112855 0.0 10131587
17:00+25nnw012671 0.0 10121566
20:00+22w12300 0.0 101244
15 april, thu
thu1523:00+20e113617 0.0 101116
02:00+18e1141100 0.0 101118
05:00+17e2244100 0.0 101250
08:00+19e113695 0.0 1013231
11:00+24wsw212998 0.0 1013943
14:00+26wsw2225100 0.0 10101789
17:00+27sw2324100 0.0 10102147
20:00+23sw2533100 0.1 1012169
16 april, fri
fri1623:00+21ene113699 0.1 101230
02:00+19se1141100 0.0 101230
05:00+18n1146100 0.0 101316
08:00+20w023778 0.0 1014366
11:00+24wnw2325100 0.0 10131224
14:00+27wsw2221100 0.0 10121938
17:00+27sw2321100 0.0 10112327
20:00+24ssw222545 0.0 101236
17 april, sat
sat1723:00+21ese1130100 0.0 101213
02:00+20se1132100 0.0 101122
05:00+19se1134100 0.0 101126
08:00+21wsw1228100 0.0 1012363
11:00+25sw4520100 0.0 10111245
14:00+27sw3318100 0.0 10101941
17:00+26ssw2218100 0.0 10092309
20:00+24wsw4921100 0.0 1011684
18 april, sun
sun1823:00+22w61123100 0.0 1012946
02:00+21wsw41126100 0.0 10121069
05:00+20ssw3827100 0.0 1014863
08:00+19wsw5838100 0.0 10171327
11:00+21wsw5828100 0.0 10172589
14:00+22wsw5724100 0.0 10172421
17:00+21w372955 0.1 10171910
20:00+18sw61139100 0.1 10191197